Date String (YYYY-MM-DD hh:mm:ss) UTC,Instrument flags,Ambient pressure (hPa),Sample flow (lpm),Bypass flow (lpm),Sample temperature (°C),Ambient temperature (°C),ASC tube jacket temperature (°C),LED temperature (°C),Box temperature (°C),Sample RH (%),Span deviation,Mass concentration (μg/m³),Mass concentration (μg/m³),Mass concentration (μg/m³)
DateTimeUTC,F1_M11,P_M11,Q1_M11,Q2_M11,T1_M11,T2_M11,T3_M11,T4_M11,T5_M11,U1_M11,ZSPAN_M11,X0_M11,X2_M11,X1_M11
2021-12-11 22:00:00,,0820.5,5.00,0.00,22.3,21.5,00.0,31.4,23.9,06.0,0000.0,0004.87,0001.35,0000.94
2021-12-11 22:01:00,,0820.5,5.00,0.00,22.3,21.5,00.0,31.4,23.9,06.0,0000.0,0004.90,0001.36,0000.94
2021-12-11 22:02:00,,0820.5,5.01,0.00,22.3,21.4,00.0,31.4,23.9,06.1,0000.0,0004.86,0001.36,0000.95
2021-12-11 22:03:00,,0820.6,4.99,0.00,22.3,21.4,00.0,31.4,23.9,06.1,0000.0,0004.64,0001.36,0000.94
2021-12-11 22:04:00,,0820.6,5.00,0.00,22.4,21.4,00.0,31.4,24.0,06.1,0000.0,0003.55,0001.39,0000.94
2021-12-11 22:05:00,,0820.6,5.00,0.00,22.4,21.4,00.0,31.4,24.0,06.1,0000.0,0003.30,0001.40,0000.94
2021-12-11 22:06:00,,0820.6,5.01,0.00,22.4,21.4,00.0,31.4,24.0,06.1,0000.0,0003.30,0001.41,0000.93
2021-12-11 22:07:00,,0820.6,4.99,0.00,22.4,21.4,00.0,31.4,24.0,06.1,0000.0,0003.27,0001.38,0000.93
2021-12-11 22:08:00,,0820.6,5.01,0.00,22.4,21.4,00.0,31.4,24.0,06.2,0000.0,0003.04,0001.36,0000.94
2021-12-11 22:09:00,,0820.6,4.99,0.00,22.4,21.4,00.0,31.4,24.0,06.1,0000.0,0003.48,0001.33,0000.94
2021-12-11 22:10:00,,0820.6,5.01,0.00,22.4,21.4,00.0,31.4,24.1,06.1,0000.0,0003.96,0001.31,0000.94
2021-12-11 22:11:00,,0820.7,5.01,0.00,22.4,21.5,00.0,31.4,24.1,06.2,0000.0,0003.11,0001.31,0000.94
2021-12-11 22:12:00,,0820.7,5.00,0.00,22.4,21.5,00.0,31.4,24.1,06.1,0000.0,0003.35,0001.38,0000.94
2021-12-11 22:13:00,,0820.7,5.00,0.00,22.5,21.5,00.0,31.4,24.1,06.1,0000.0,0003.51,0001.38,0000.93
2021-12-11 22:14:00,,0820.6,5.00,0.00,22.5,21.5,00.0,31.4,24.1,06.2,0000.0,0003.72,0001.37,0000.93
2021-12-11 22:15:00,,0820.7,5.01,0.00,22.5,21.5,00.0,31.4,24.2,06.1,0000.0,0004.29,0001.37,0000.93
2021-12-11 22:16:00,,0820.7,4.99,0.00,22.5,21.5,00.0,31.4,24.3,06.1,0000.0,0004.28,0001.36,0000.92
2021-12-11 22:17:00,,0820.7,5.00,0.00,22.6,21.6,00.0,31.5,24.3,06.2,0000.0,0004.20,0001.33,0000.92
2021-12-11 22:18:00,,0820.7,5.01,0.00,22.6,21.6,00.0,31.5,24.3,06.2,0000.0,0004.25,0001.34,0000.92
2021-12-11 22:19:00,,0820.7,4.99,0.00,22.6,21.6,00.0,31.5,24.3,06.3,0000.0,0004.17,0001.32,0000.92
2021-12-11 22:20:00,,0820.7,4.99,0.00,22.6,21.6,00.0,31.5,24.3,06.2,0000.0,0003.60,0001.30,0000.91
2021-12-11 22:21:00,,0820.8,5.00,0.00,22.6,21.6,00.0,31.5,24.3,06.2,0000.0,0003.02,0001.26,0000.90
2021-12-11 22:22:00,,0820.7,5.01,0.00,22.6,21.6,00.0,31.5,24.3,06.1,0000.0,0003.03,0001.27,0000.90
2021-12-11 22:23:00,,0820.9,5.00,0.00,22.6,21.7,00.0,31.5,24.3,06.2,0000.0,0002.81,0001.20,0000.90
2021-12-11 22:24:00,,0820.9,5.00,0.00,22.6,21.7,00.0,31.5,24.3,06.2,0000.0,0002.66,0001.17,0000.90
2021-12-11 22:25:00,,0820.9,5.00,0.00,22.6,21.7,00.0,31.5,24.3,06.1,0000.0,0002.40,0001.19,0000.91
2021-12-11 22:26:00,,0820.9,4.99,0.00,22.6,21.6,00.0,31.5,24.3,06.1,0000.0,0001.85,0001.18,0000.91
2021-12-11 22:27:00,,0820.9,5.00,0.00,22.6,21.6,00.0,31.5,24.3,06.1,0000.0,0001.78,0001.19,0000.91
2021-12-11 22:28:00,,0820.9,5.00,0.00,22.6,21.6,00.0,31.6,24.3,06.1,0000.0,0001.91,0001.25,0000.93
2021-12-11 22:29:00,,0820.9,5.01,0.00,22.6,21.6,00.0,31.6,24.3,06.2,0000.0,0001.98,0001.29,0000.93
2021-12-11 22:30:00,,0820.8,4.99,0.00,22.6,21.6,00.0,31.6,24.3,06.1,0000.0,0001.99,0001.29,0000.93
2021-12-11 22:31:00,,0820.8,5.00,0.00,22.6,21.7,00.0,31.6,24.4,06.0,0000.0,0001.98,0001.29,0000.93
2021-12-11 22:32:00,,0820.7,4.99,0.00,22.7,21.6,00.0,31.6,24.3,06.0,0000.0,0002.06,0001.31,0000.93
2021-12-11 22:33:00,,0820.7,5.00,0.00,22.6,21.6,00.0,31.6,24.3,06.0,0000.0,0002.22,0001.34,0000.94
2021-12-11 22:34:00,,0820.6,5.01,0.00,22.7,21.7,00.0,31.6,24.4,06.1,0000.0,0002.30,0001.38,0000.95
2021-12-11 22:35:00,,0820.7,5.01,0.00,22.7,21.7,00.0,31.6,24.4,06.1,0000.0,0002.31,0001.40,0000.95
2021-12-11 22:36:00,,0820.9,5.01,0.00,22.6,21.7,00.0,31.6,24.4,06.1,0000.0,0002.35,0001.43,0000.96
2021-12-11 22:37:00,,0820.9,5.00,0.00,22.6,21.7,00.0,31.6,24.5,06.1,0000.0,0002.51,0001.47,0000.96
2021-12-11 22:38:00,,0821.0,4.99,0.00,22.6,21.7,00.0,31.6,24.4,06.0,0000.0,0002.63,0001.51,0000.97
2021-12-11 22:39:00,,0820.9,5.00,0.00,22.6,21.7,00.0,31.6,24.3,06.1,0000.0,0002.59,0001.47,0000.97
2021-12-11 22:40:00,,0821.0,4.98,0.00,22.6,21.7,00.0,31.6,24.3,06.1,0000.0,0003.72,0001.42,0000.96
2021-12-11 22:41:00,,0821.0,5.01,0.00,22.6,21.7,00.0,31.6,24.3,06.1,0000.0,0005.18,0001.40,0000.97
2021-12-11 22:42:00,,0820.9,5.02,0.00,22.6,21.7,00.0,31.6,24.3,06.1,0000.0,0005.23,0001.43,0000.99
2021-12-11 22:43:00,,0821.0,5.00,0.00,22.5,21.6,00.0,31.6,24.2,06.2,0000.0,0005.29,0001.46,0000.99
2021-12-11 22:44:00,,0821.0,5.00,0.00,22.5,21.6,00.0,31.6,24.2,06.2,0000.0,0005.20,0001.46,0000.99
2021-12-11 22:45:00,,0821.0,5.00,0.00,22.5,21.6,00.0,31.6,24.2,06.2,0000.0,0005.18,0001.44,0000.99
2021-12-11 22:46:00,,0821.0,4.99,0.00,22.5,21.6,00.0,31.6,24.1,06.2,0000.0,0005.22,0001.45,0000.99
2021-12-11 22:47:00,,0821.0,5.00,0.00,22.4,21.6,00.0,31.5,24.0,06.2,0000.0,0005.22,0001.44,0001.00
2021-12-11 22:48:00,,0821.0,5.00,0.00,22.4,21.5,00.0,31.5,24.0,06.2,0000.0,0005.04,0001.39,0001.00
2021-12-11 22:49:00,,0821.0,5.00,0.00,22.4,21.5,00.0,31.5,24.1,06.3,0000.0,0004.94,0001.38,0001.00
2021-12-11 22:50:00,,0820.9,5.00,0.00,22.5,21.6,00.0,31.5,24.2,06.2,0000.0,0004.89,0001.36,0001.00
2021-12-11 22:51:00,,0820.9,4.99,0.00,22.5,21.5,00.0,31.5,24.2,06.3,0000.0,0004.63,0001.38,0000.99
2021-12-11 22:52:00,,0820.9,4.99,0.00,22.4,21.6,00.0,31.5,24.1,06.3,0000.0,0002.33,0001.41,0000.99
2021-12-11 22:53:00,,0820.8,5.00,0.00,22.4,21.5,00.0,31.5,24.1,06.4,0000.0,0002.31,0001.45,0001.00
2021-12-11 22:54:00,,0820.8,4.98,0.00,22.4,21.5,00.0,31.5,24.1,06.4,0000.0,0002.44,0001.45,0001.00
2021-12-11 22:55:00,,0820.8,5.00,0.00,22.4,21.5,00.0,31.5,24.1,06.4,0000.0,0002.63,0001.47,0001.01
2021-12-11 22:56:00,,0820.8,5.01,0.00,22.4,21.5,00.0,31.5,24.1,06.4,0000.0,0002.78,0001.50,0001.02
2021-12-11 22:57:00,,0820.7,5.00,0.00,22.4,21.5,00.0,31.5,24.1,06.5,0000.0,0002.68,0001.47,0001.03
2021-12-11 22:58:00,,0820.8,5.00,0.00,22.4,21.5,00.0,31.5,24.1,06.5,0000.0,0002.70,0001.47,0001.03
2021-12-11 22:59:00,,0820.9,4.99,0.00,22.3,21.5,00.0,31.5,24.1,06.5,0000.0,0003.07,0001.53,0001.03
